Location: *
(51.1248°S, 108.4023°W)
Time: 05:43:37
(UTC+00:00)

N. Korean satellite - Pass Details

Date: 30 September 2021
Orbit: 450 x 495 km, 97.3° (Epoch: 18 October)

Event Time Altitude Azimuth Distance (km) Brightness Sun altitude
Rises 01:54:47 0° 181° (S) 2,573 10.4 -5.7°
Reaches altitude 10° 01:57:29 10° 203° (SSW) 1,673 9.8 -6.2°
Maximum altitude 01:59:43 16° 241° (WSW) 1,331 10.1 -6.5°
Drops below altitude 10° 02:01:55 10° 280° (W) 1,643 10.5 -6.8°
Sets 02:04:32 0° 302° (WNW) 2,501 10.9 -7.2°
